Regional Weather Roundup
Issued by NWS

Home | Current Version | Previous Version | Graphics & Text | Print | Product List | Glossary Off
Versions: 1 2 3 4 5 6 7 8 9 10 11 12 13 14 15 16 17 18 19 20 21 22 23 24 25 26 27 28 29 30 31 32 33 34 35 36 37 38 39 40 41 42 43 44 45 46 47 48 49 50

000
ASUS43 KMKX 281200
RWRWI

WISCONSIN REGIONAL WEATHER ROUNDUP
NATIONAL WEATHER SERVICE MILWAUKEE/SULLIVAN WI
700 AM CDT FRI AUG 28 2015

NOTE: "FAIR" INDICATES FEW OR NO CLOUDS BELOW 12,000 FEET WITH NO
SIGNIFICANT WEATHER AND/OR OBSTRUCTIONS TO VISIBILITY.

WIZ001-002-006>008-014>016-023>028-281300-
NORTHWEST WISCONSIN

CITY           SKY/WX    TMP DP  RH WIND       PRES   REMARKS
SUPERIOR ARPT  CLOUDY    56  53  91 CALM      29.98R
ASHLAND        CLOUDY    63  61  93 S8        30.00R
6HR MIN TEMP:  56; 6HR MAX TEMP:  64;

HAYWARD        CLEAR     59  57  93 S3        30.02S
6HR MIN TEMP:  59; 6HR MAX TEMP:  63;

SIREN          PTCLDY    61  58  92 S5        30.00S
CUMBERLAND     PTCLDY    55  54  94 CALM      30.02R
RICE LAKE      PTCLDY    58  56  93 CALM      30.03S
CHETEK         PTCLDY   N/A N/A N/A CALM      30.02S
LADYSMITH      PTCLDY    59  57  94 SE3       30.05S
EAU CLAIRE     CLOUDY    61  58  90 S3        30.03R
6HR MIN TEMP:  60; 6HR MAX TEMP:  64;

MENOMONIE      CLOUDY    59  58  96 CALM      30.03R
NEW RICHMOND   CLOUDY    58  58  99 S3        30.02S
OSCEOLA        MOCLDY    58  58 100 S3        30.04R
$$

WIZ003>005-009-010-017-018-281300-
NORTH CENTRAL WISCONSIN

CITY           SKY/WX    TMP DP  RH WIND       PRES   REMARKS
MANITOWISH WTR MOCLDY    59  59 100 S7        30.04S
ARBOR VITAE    PTCLDY    59  57  92 S6        30.06S
WOODRUFF       PTCLDY    59  57  92 S6        30.06S
RHINELANDER    MOCLDY    60  57  89 SW9       30.08S
6HR MIN TEMP:  56; 6HR MAX TEMP:  62;

EAGLE RIVER    PTCLDY    58  57  99 CALM      30.06S
LAND O LAKES   PTCLDY    57  56  97 CALM      30.07R
PHILLIPS       PTCLDY    58  57  98 S5        30.04S
6HR MIN TEMP:  57; 6HR MAX TEMP:  60;

TOMAHAWK       MOCLDY    56  55  96 CALM      30.08S
MEDFORD        MOCLDY    56  56  98 SE3       30.07S
MERRILL        PTCLDY    59  58  96 CALM      30.08F
$$

WIZ029-030-035-036-043>047-281300-
CENTRAL WISCONSIN

CITY           SKY/WX    TMP DP  RH WIND       PRES   REMARKS
WAUSAU         MOCLDY    60  58  92 S6        30.07S
6HR MIN TEMP:  59; 6HR MAX TEMP:  63;

MOSINEE        PTCLDY    55  55 100 S5        30.10R
MARSHFIELD     MOCLDY    57  54  89 S3        30.08R FOG
6HR MIN TEMP:  56; 6HR MAX TEMP:  61;

STEVENS POINT  MOCLDY    56  55  95 S5        30.10S
WAUPACA        MOCLDY    58  57  97 CALM      30.10F
WAUTOMA        NOT AVBL
WISC RAPIDS    MOCLDY    59  56  89 S6        30.10S
6HR MIN TEMP:  58; 6HR MAX TEMP:  63; 6HR PCP: TRACE;

CAMP DOUGLAS   NOT AVBL
$$

WIZ011>013-019>022-031-037>040-048>050-281300-
NORTHEAST WISCONSIN

CITY           SKY/WX    TMP DP  RH WIND       PRES   REMARKS
ANTIGO         MOCLDY    57  56  97 SW5       30.10S
SHAWANO        MOCLDY    60  57  92 CALM      30.10S
OCONTO         CLOUDY    57  57 100 CALM      30.11R
STURGEON BAY   MOCLDY    57  52  82 SW7       30.14R
6HR MIN TEMP:  55; 6HR MAX TEMP:  59;

GREEN BAY      MOCLDY    55  53  93 S5        30.12R FOG
6HR MIN TEMP:  55; 6HR MAX TEMP:  59;

MANITOWOC      NOT AVBL
APPLETON       MOCLDY    55  50  82 VRB5      30.10S
CLINTONVILLE   MOCLDY    57  55  94 S5        30.10S
OSHKOSH        PTCLDY    54  52  93 S7        30.12R
6HR MIN TEMP:  54; 6HR MAX TEMP:  60;

$$

WIZ032>034-041-042-053>061-281300-
SOUTHWEST WISCONSIN

CITY           SKY/WX    TMP DP  RH WIND       PRES   REMARKS
LA CROSSE      CLOUDY    65  60  84 S10       30.05R
6HR MIN TEMP:  64; 6HR MAX TEMP:  67;

SPARTA         CLOUDY    60  57  91 CALM      30.07S
VIROQUA        CLOUDY    60  60 100 SE7       30.08S
BOSCOBEL       CLOUDY    60  58  92 CALM      30.09S FOG
6HR MIN TEMP:  58; 6HR MAX TEMP:  61;

PRAIRIE DU CHI CLOUDY    64  57  80 CALM      30.09R
PLATTEVILLE    CLOUDY    60  59  96 SE6       30.11R
$$

WIZ056-057-062-063-064-067-068-281300-
SOUTH CENTRAL WISCONSIN

CITY           SKY/WX    TMP DP  RH WIND       PRES   REMARKS
REEDSBURG      MOCLDY    57  56  95 CALM      30.09S
BARABOO/DELLS  MOCLDY    57  54  91 S5        30.10S FOG
LONE ROCK      NOT AVBL
MINERAL POINT  CLOUDY    61  59  94 SE3       30.11S FOG
MADISON        CLOUDY    60  55  83 S5        30.12R
6HR MIN TEMP:  59; 6HR MAX TEMP:  62;

MIDDLETON      MOCLDY    57  55  95 CALM      30.12S
WATERTOWN      CLEAR     51  51 100 CALM      30.13R FOG
MONROE         CLOUDY    59  55  88 S5        30.12R
JANESVILLE     MOCLDY    59  57  94 CALM      30.12R FOG
$$

WIZ051-052-058>065-066-070>072-281300-
SOUTHEAST WISCONSIN

CITY           SKY/WX    TMP DP  RH WIND       PRES   REMARKS
MILWAUKEE      MOCLDY    60  56  86 SW3       30.15R FOG
6HR MIN TEMP:  56; 6HR MAX TEMP:  60;

WAUKESHA       CLEAR     54  54 100 CALM      30.15R FOG
MILWAUKEE/TIMM PTCLDY    55  52  88 CALM      30.15R
RACINE         PTCLDY    59  56  89 CALM      30.15R
6HR MIN TEMP:  58; 6HR MAX TEMP:  61;

BURLINGTON     MOCLDY    50  50  99 CALM      30.13S FOG
KENOSHA        PTCLDY    57  55  93 CALM      30.14R FOG
6HR MIN TEMP:  52; 6HR MAX TEMP:  57;

FOND DU LAC    PTCLDY    54  52  93 S5        30.13S
6HR MIN TEMP:  52; 6HR MAX TEMP:  59;

SHEBOYGAN      MOCLDY    54  53  97 CALM      30.14R FOG
6HR MIN TEMP:  51; 6HR MAX TEMP:  56;

WEST BEND      PTCLDY    52  50  93 CALM      30.14R FOG
JUNEAU         PTCLDY    53  51  94 CALM      30.15R FOG
$$

LSZ147-162-281300-
LAKE SUPERIOR

STATION/POSITION TIME  TEMP    WIND        PRES    WAVE
                       AIR SEA DIR/SP/G            HT/PER
                 (UTC) (F)     (DEG/KT/KT) (MB)    (FT/S)
W MID LAKE BUOY  1050   58 55  200/ 10/ 10 1015.0F   0
DEVILS ISLAND    1100   61     200/  5/  6 1015.1F
PORT WING        1100   57     150/  1/  3 1015.2
SAXON HARBOR     1140   63      CALM  /  3 1015.2R
$$

LMZ867-665-643>646-281300-
LAKE MICHIGAN

STATION/POSITION TIME  TEMP    WIND        PRES    WAVE
                       AIR SEA DIR/SP/G            HT/PER
                 (UTC) (F)     (DEG/KT/KT) (MB)    (FT/S)
CHAMBERS ISLAND  1100   60     180/  5/  7 1019.0R
S GREEN BAY BUOY 1100   63     200/ 14/ 17 1020.3R
N MID LAKE BUOY  1050   63 64  210/ 16/ 21 1018.3F   3/ 4
NORTHPORT PIER   1100   59     160/  3/  7 1018.6R
SISTER BAY       1119   58     190/  5/  6   N/A
ALGOMA LAKESHORE 1114             CALM       N/A
KEWAUNEE LAKESHO 1100   50     190/  4/  5 1018.5R
SHEBOYGAN LAKESH 1100   54     180/  5/  6 1020.6R
PORT WASHINGTON  1100   50      CALM  /  2 1020.7R
ATWATER BUOY     1100   51 47  160/  2/  4 1021.3R
MILWAUKEE LAKESH 1100   57     230/  1/  1   N/A
S MID LAKE BUOY  0950   67 67  170/ 12/ 14 1019.5F   1/ 3
KENOSHA   LAKESH 1100   62     210/  4/  4 1019.6R
$$

TC  - TEMPERATURE IN CELSIUS
VSB - VISIBILITY IN STATUTE MILES
WCI - WIND CHILL INDEX
HX  - HEAT INDEX




USA.gov is the U.S. government's official web portal to all federal, state and local government web resources and services.